This is the latest recevied weather packets stored in our database for station/object AD0YN. If no packets are shown the sender has not sent any weather packets the latest 10 day(s).
| Time | Temp. | Humidity | Pressure | Rain* | Wind** | Luminosity | Snow |
|---|---|---|---|---|---|---|---|
| 1777633912 | 2.22° C | 88% | 1017.7 hPa | 0 mm | - | 3 W/m² | - |
| 1777633610 | 2.78° C | 88% | 1017.7 hPa | 0 mm | - | 1 W/m² | - |
| 1777633308 | 2.78° C | 87% | 1017.8 hPa | 0 mm | - | 1 W/m² | - |
| 1777633005 | 2.78° C | 86% | 1017.7 hPa | 0 mm | - | 0 W/m² | - |
| 1777632701 | 2.78° C | 84% | 1017.8 hPa | 0 mm | - | 0 W/m² | - |
| 1777632397 | 3.33° C | 84% | 1017.7 hPa | 0 mm | - | 0 W/m² | - |
| 1777632095 | 3.33° C | 84% | 1017.9 hPa | 0 mm | - | 0 W/m² | - |
| 1777631792 | 2.78° C | 86% | 1017.8 hPa | 0 mm | - | 0 W/m² | - |
| 1777631491 | 2.78° C | 87% | 1017.9 hPa | 0 mm | - | 0 W/m² | - |
| 1777631186 | 2.78° C | 88% | 1018 hPa | 0 mm | - | 0 W/m² | - |
| 1777630884 | 2.78° C | 89% | 1017.9 hPa | 0 mm | - | 0 W/m² | - |
| 1777630579 | 2.22° C | 93% | 1018 hPa | 0 mm | - | 0 W/m² | - |
| 1777630276 | 2.22° C | 93% | 1017.9 hPa | 0 mm | - | 0 W/m² | - |
| 1777629975 | 2.22° C | 93% | 1017.9 hPa | 0 mm | - | 0 W/m² | - |
| 1777629672 | 2.22° C | 93% | 1018 hPa | 0 mm | - | 0 W/m² | - |
| 1777629368 | 2.22° C | 93% | 1017.9 hPa | 0 mm | - | 0 W/m² | - |
| 1777629064 | 2.22° C | 93% | 1017.9 hPa | 0 mm | - | 0 W/m² | - |
| 1777628761 | 2.22° C | 93% | 1017.9 hPa | 0 mm | - | 0 W/m² | - |
| 1777628457 | 2.22° C | 92% | 1017.9 hPa | 0 mm | - | 0 W/m² | - |
| 1777628153 | 2.22° C | 92% | 1017.9 hPa | 0 mm | - | 0 W/m² | - |
| 1777627849 | 2.22° C | 92% | 1018.1 hPa | 0 mm | - | 0 W/m² | - |
| 1777627548 | 2.22° C | 91% | 1017.8 hPa | 0 mm | - | 0 W/m² | - |
| 1777627243 | 2.78° C | 90% | 1018.2 hPa | 0 mm | - | 0 W/m² | - |
| 1777626940 | 2.78° C | 90% | 1018.1 hPa | 0 mm | - | 0 W/m² | - |
| 1777626636 | 2.78° C | 89% | 1018.1 hPa | 0 mm | - | 0 W/m² | - |
* Rain latest hour (hover to see other rain measurements)
** Current wind speed in m/s (hover to see current wind gust speed)